When you browse on this site, cookies collect data to enhance your experience and personalize the content and advertising you see.
Visit our Privacy Policy to learn more. By continuing to use the site, you agree to this use of cookies and data.
  • In Portugal
  • List of Countries
  • For 7 days
  • Water Temperature
  • Satellite Maps
  • Weather Map
  • Weather Widgets
  • user-avatar
    Login

    Hourly Weather Aymazimahi

    Today, 19 June, Wednesday

    Time Temperature Precipitation Wind Pressure Humidity
    00:00 +14°C° 0 mm 2 mps 649 mmHg 74%
    01:00 +14°C° 0 mm 2 mps 649 mmHg 73%
    02:00 +14°C° 0 mm 2 mps 649 mmHg 72%
    03:00 +14°C° 0 mm 2 mps 649 mmHg 71%
    04:00 +15°C° 0 mm 2 mps 649 mmHg 69%
    05:00 +16°C° 0 mm 1 mps 650 mmHg 66%
    06:00 +18°C° 0 mm 1 mps 650 mmHg 64%
    07:00 +19°C° 0 mm 2 mps 651 mmHg 57%
    08:00 +20°C° 0 mm 2 mps 651 mmHg 50%
    09:00 +23°C° 0 mm 2 mps 652 mmHg 43%
    10:00 +24°C° 0 mm 3 mps 652 mmHg 43%
    11:00 +24°C° 0 mm 3 mps 652 mmHg 42%
    12:00 +25°C° 0 mm 4 mps 652 mmHg 41%
    13:00 +23°C° 0.1 mm 4 mps 652 mmHg 42%
    14:00 +23°C° 0.1 mm 4 mps 652 mmHg 43%
    15:00 +23°C° 0.1 mm 4 mps 652 mmHg 43%
    16:00 +22°C° 0 mm 3 mps 651 mmHg 48%
    17:00 +21°C° 0 mm 2 mps 651 mmHg 52%
    18:00 +21°C° 0 mm 1 mps 651 mmHg 57%
    19:00 +20°C° 0 mm 1 mps 650 mmHg 60%
    20:00 +18°C° 0 mm 1 mps 650 mmHg 63%
    21:00 +16°C° 0 mm 1 mps 650 mmHg 66%
    22:00 +16°C° 0 mm 1 mps 650 mmHg 67%
    23:00 +15°C° 0 mm 1 mps 650 mmHg 68%

    Tomorrow, 20 June, Thursday

    Time Temperature Precipitation Wind Pressure Humidity
    00:00 +15°C° 0 mm 1 mps 650 mmHg 69%
    01:00 +15°C° 0 mm 1 mps 649 mmHg 69%
    02:00 +15°C° 0 mm 1 mps 649 mmHg 69%
    03:00 +14°C° 0 mm 1 mps 649 mmHg 68%
    04:00 +16°C° 0 mm 1 mps 649 mmHg 66%
    05:00 +18°C° 0 mm 1 mps 650 mmHg 65%
    06:00 +19°C° 0 mm 1 mps 650 mmHg 63%
    07:00 +21°C° 0 mm 1 mps 651 mmHg 57%
    08:00 +21°C° 0 mm 2 mps 651 mmHg 51%
    09:00 +24°C° 0 mm 2 mps 652 mmHg 46%
    10:00 +24°C° 0.1 mm 3 mps 652 mmHg 44%
    11:00 +24°C° 0.1 mm 3 mps 651 mmHg 43%
    12:00 +25°C° 0.1 mm 4 mps 651 mmHg 42%
    13:00 +24°C° 0.2 mm 3 mps 651 mmHg 42%
    14:00 +24°C° 0.2 mm 3 mps 651 mmHg 43%
    15:00 +24°C° 0.2 mm 3 mps 651 mmHg 44%
    16:00 +23°C° 0.2 mm 2 mps 650 mmHg 47%
    17:00 +21°C° 0.2 mm 2 mps 650 mmHg 51%
    18:00 +21°C° 0.2 mm 1 mps 650 mmHg 54%
    19:00 +19°C° 0 mm 1 mps 650 mmHg 57%
    20:00 +18°C° 0 mm 1 mps 649 mmHg 59%
    21:00 +15°C° 0 mm 1 mps 649 mmHg 62%
    22:00 +15°C° 0 mm 1 mps 649 mmHg 62%
    23:00 +15°C° 0 mm 1 mps 649 mmHg 62%

    Day after tomorrow, 21 June, Friday

    Time Temperature Precipitation Wind Pressure Humidity
    00:00 +15°C° 0 mm 2 mps 649 mmHg 62%
    01:00 +15°C° 0 mm 2 mps 649 mmHg 61%
    02:00 +14°C° 0 mm 2 mps 649 mmHg 61%
    03:00 +14°C° 0 mm 2 mps 649 mmHg 60%
    04:00 +15°C° 0 mm 2 mps 649 mmHg 58%
    05:00 +16°C° 0 mm 2 mps 650 mmHg 57%
    06:00 +17°C° 0 mm 2 mps 650 mmHg 55%
    07:00 +19°C° 0 mm 2 mps 651 mmHg 51%
    08:00 +21°C° 0 mm 2 mps 651 mmHg 46%
    09:00 +23°C° 0 mm 2 mps 652 mmHg 41%
    10:00 +24°C° 0 mm 3 mps 652 mmHg 42%
    11:00 +24°C° 0 mm 3 mps 652 mmHg 42%
    12:00 +25°C° 0 mm 4 mps 652 mmHg 42%
    13:00 +23°C° 0 mm 4 mps 652 mmHg 44%
    14:00 +23°C° 0 mm 4 mps 652 mmHg 45%
    15:00 +23°C° 0 mm 4 mps 652 mmHg 46%
    16:00 +22°C° 0 mm 3 mps 652 mmHg 50%
    17:00 +21°C° 0 mm 2 mps 652 mmHg 55%
    18:00 +20°C° 0 mm 2 mps 651 mmHg 59%
    19:00 +20°C° 0 mm 1 mps 651 mmHg 63%
    20:00 +18°C° 0 mm 1 mps 651 mmHg 67%
    21:00 +15°C° 0 mm 1 mps 650 mmHg 71%
    22:00 +15°C° 0 mm 1 mps 650 mmHg 70%
    23:00 +15°C° 0 mm 2 mps 650 mmHg 70%

    22 June, Saturday

    Time Temperature Precipitation Wind Pressure Humidity
    00:00 +15°C° 0 mm 2 mps 650 mmHg 69%
    01:00 +14°C° 0 mm 2 mps 650 mmHg 68%
    02:00 +14°C° 0 mm 2 mps 650 mmHg 67%
    03:00 +14°C° 0 mm 2 mps 650 mmHg 65%
    04:00 +15°C° 0 mm 2 mps 651 mmHg 63%
    05:00 +16°C° 0 mm 2 mps 651 mmHg 61%
    06:00 +17°C° 0 mm 2 mps 651 mmHg 59%
    07:00 +19°C° 0 mm 2 mps 652 mmHg 53%
    08:00 +21°C° 0 mm 2 mps 653 mmHg 47%
    09:00 +24°C° 0 mm 1 mps 653 mmHg 42%
    10:00 +25°C° 0 mm 2 mps 653 mmHg 41%
    11:00 +25°C° 0 mm 3 mps 653 mmHg 41%
    12:00 +26°C° 0 mm 3 mps 654 mmHg 40%
    13:00 +26°C° 0 mm 3 mps 653 mmHg 41%
    14:00 +25°C° 0 mm 3 mps 653 mmHg 42%
    15:00 +25°C° 0 mm 2 mps 653 mmHg 43%
    16:00 +25°C° 0 mm 2 mps 652 mmHg 47%
    17:00 +24°C° 0 mm 1 mps 652 mmHg 51%
    18:00 +23°C° 0 mm 1 mps 652 mmHg 55%
    19:00 +22°C° 0.1 mm 1 mps 652 mmHg 58%
    20:00 +21°C° 0.1 mm 1 mps 652 mmHg 61%
    21:00 +19°C° 0.1 mm 1 mps 652 mmHg 65%
    22:00 +19°C° 0 mm 1 mps 651 mmHg 66%
    23:00 +18°C° 0 mm 1 mps 651 mmHg 67%

    23 June, Sunday

    Time Temperature Precipitation Wind Pressure Humidity
    00:00 +18°C° 0 mm 1 mps 651 mmHg 68%
    01:00 +16°C° 0 mm 2 mps 651 mmHg 68%
    02:00 +16°C° 0 mm 2 mps 651 mmHg 68%
    03:00 +16°C° 0 mm 2 mps 651 mmHg 68%
    04:00 +17°C° 0 mm 2 mps 651 mmHg 65%
    05:00 +18°C° 0 mm 2 mps 651 mmHg 63%
    06:00 +19°C° 0 mm 2 mps 652 mmHg 61%
    07:00 +21°C° 0 mm 2 mps 652 mmHg 55%
    08:00 +24°C° 0 mm 2 mps 653 mmHg 49%
    09:00 +25°C° 0 mm 2 mps 654 mmHg 42%
    10:00 +26°C° 0 mm 2 mps 654 mmHg 42%
    11:00 +26°C° 0 mm 3 mps 654 mmHg 41%
    12:00 +27°C° 0 mm 3 mps 654 mmHg 41%
    13:00 +27°C° 0.1 mm 3 mps 654 mmHg 41%
    14:00 +26°C° 0.1 mm 3 mps 653 mmHg 41%
    15:00 +26°C° 0.1 mm 3 mps 653 mmHg 41%
    16:00 +25°C° 0 mm 2 mps 653 mmHg 44%
    17:00 +25°C° 0 mm 1 mps 653 mmHg 47%
    18:00 +24°C° 0 mm 1 mps 652 mmHg 50%
    19:00 +22°C° 0 mm 1 mps 652 mmHg 52%
    20:00 +21°C° 0 mm 1 mps 652 mmHg 54%
    21:00 +19°C° 0 mm 1 mps 651 mmHg 56%
    22:00 +19°C° 0 mm 1 mps 651 mmHg 57%
    23:00 +19°C° 0 mm 1 mps 651 mmHg 58%

    24 June, Monday

    Time Temperature Precipitation Wind Pressure Humidity
    00:00 +17°C° 0 mm 2 mps 651 mmHg 59%
    01:00 +17°C° 0 mm 2 mps 651 mmHg 60%
    02:00 +17°C° 0 mm 2 mps 651 mmHg 60%
    03:00 +17°C° 0 mm 2 mps 651 mmHg 60%
    04:00 +18°C° 0 mm 2 mps 651 mmHg 59%
    05:00 +20°C° 0 mm 1 mps 652 mmHg 58%
    06:00 +21°C° 0 mm 1 mps 652 mmHg 56%
    07:00 +22°C° 0 mm 1 mps 652 mmHg 52%
    08:00 +23°C° 0 mm 1 mps 653 mmHg 47%
    09:00 +24°C° 0 mm 1 mps 653 mmHg 43%
    10:00 +25°C° 0.1 mm 2 mps 653 mmHg 43%
    11:00 +25°C° 0.1 mm 2 mps 653 mmHg 42%
    12:00 +25°C° 0.1 mm 2 mps 653 mmHg 42%
    13:00 +25°C° 0.1 mm 2 mps 653 mmHg 43%
    14:00 +25°C° 0.1 mm 2 mps 653 mmHg 44%
    15:00 +24°C° 0.1 mm 1 mps 653 mmHg 45%
    16:00 +24°C° 0.1 mm 1 mps 652 mmHg 50%
    17:00 +23°C° 0.1 mm 1 mps 652 mmHg 54%
    18:00 +23°C° 0.1 mm 1 mps 652 mmHg 58%
    19:00 +21°C° 0.3 mm 1 mps 652 mmHg 61%
    20:00 +20°C° 0.3 mm 1 mps 652 mmHg 64%
    21:00 +19°C° 0.3 mm 1 mps 652 mmHg 67%
    22:00 +19°C° 0.1 mm 1 mps 652 mmHg 67%
    23:00 +18°C° 0.1 mm 2 mps 651 mmHg 68%
    Show more